Location: Kelshall
(52.0000°N, 0.0500°W)
Time: 16:21:11
(UTC+00:00)

Cosmos 1125 Rocket - Pass Details

Date: 18 September 2020
Orbit: 758 x 779 km, 74.0° (Epoch: 31 October)

Event Time Altitude Azimuth Distance (km) Brightness Sun altitude
Rises 20:38:56 0° 203° (SSW) 3,247 6.6 -22.7°
Reaches altitude 10° 20:41:18 10° 203° (SSW) 2,326 5.9 -23.0°
Maximum altitude 20:46:37 90° 291° (WNW) 788 3.4 -23.7°
Drops below altitude 10° 20:51:58 10° 25° (NNE) 2,345 6.1 -24.3°
Sets 20:54:22 0° 26° (NNE) 3,276 6.9 -24.6°
